Data supplied by UK-AIR on 15/5/2019
All Data GMT hour ending  NB:  Upto 23/07/2018 PM10 were measured with a Partisol (emfab), from 24/07/2018 PM10 were measured with a FIDAS
Status: R =Ratified P=Provisional,P*=As supplied
,,Inverness,,,,,,,,,,,,,,,,,,,,,,,
Date,time,"PM<sub>10</sub> particulate matter (Hourly measured)",status,unit,"Nitric oxide",status,unit,"Nitrogen dioxide",status,unit,"Nitrogen oxides as nitrogen dioxide",status,unit,"PM<sub>2.5</sub> particulate matter (Hourly measured)",status,unit
 
01-01-2018,01:00,,,,9.63579,R,ugm-3,26.07515,R,ugm-3,40.84981,R,ugm-3,,,
01-01-2018,02:00,,,,9.36178,R,ugm-3,28.83743,R,ugm-3,43.19196,R,ugm-3,,,
01-01-2018,03:00,,,,15.65244,R,ugm-3,38.61793,R,ugm-3,62.61801,R,ugm-3,,,
01-01-2018,04:00,,,,13.80292,R,ugm-3,43.21044,R,ugm-3,64.37462,R,ugm-3,,,
01-01-2018,05:00,,,,26.98933,R,ugm-3,48.61741,R,ugm-3,90.00048,R,ugm-3,,,
01-01-2018,06:00,,,,13.97417,R,ugm-3,39.53797,R,ugm-3,60.96473,R,ugm-3,,,
01-01-2018,07:00,,,,6.37058,R,ugm-3,29.44567,R,ugm-3,39.21376,R,ugm-3,,,
01-01-2018,08:00,,,,8.66536,R,ugm-3,24.17045,R,ugm-3,37.45714,R,ugm-3,,,
01-01-2018,09:00,,,,16.81696,R,ugm-3,44.01381,R,ugm-3,69.79945,R,ugm-3,,,
01-01-2018,10:00,,,,13.80292,R,ugm-3,38.40559,R,ugm-3,59.56978,R,ugm-3,,,
01-01-2018,11:00,,,,44.62830,R,ugm-3,49.00550,R,ugm-3,117.43461,R,ugm-3,,,
01-01-2018,12:00,,,,31.88714,R,ugm-3,29.99956,R,ugm-3,78.89250,R,ugm-3,,,
01-01-2018,13:00,,,,22.77653,R,ugm-3,30.32940,R,ugm-3,65.25293,R,ugm-3,,,
01-01-2018,14:00,,,,18.73498,R,ugm-3,26.76167,R,ugm-3,55.48824,R,ugm-3,,,
01-01-2018,15:00,,,,20.55025,R,ugm-3,25.99323,R,ugm-3,57.50317,R,ugm-3,,,
01-01-2018,16:00,,,,13.32341,R,ugm-3,12.79166,R,ugm-3,33.22061,R,ugm-3,,,
01-01-2018,17:00,,,,22.63953,R,ugm-3,30.79780,R,ugm-3,65.51125,R,ugm-3,,,
01-01-2018,18:00,,,,9.72712,R,ugm-3,13.50106,R,ugm-3,28.41576,R,ugm-3,,,
01-01-2018,19:00,,,,11.40539,R,ugm-3,16.45590,R,ugm-3,33.94392,R,ugm-3,,,
01-01-2018,20:00,,,,10.96014,R,ugm-3,14.34871,R,ugm-3,31.15401,R,ugm-3,,,
01-01-2018,21:00,,,,11.78214,R,ugm-3,20.42474,R,ugm-3,38.49045,R,ugm-3,,,
01-01-2018,22:00,,,,9.62437,R,ugm-3,13.65861,R,ugm-3,28.41576,R,ugm-3,,,
01-01-2018,23:00,,,,5.20606,R,ugm-3,7.56865,R,ugm-3,15.55117,R,ugm-3,,,
01-01-2018,24:00,,,,2.91129,R,ugm-3,6.33408,R,ugm-3,10.79799,R,ugm-3,,,
02-01-2018,01:00,,,,2.14481,R,ugm-3,5.87856,R,ugm-3,9.16723,R,ugm-3,,,
02-01-2018,02:00,,,,4.19835,R,ugm-3,11.20780,R,ugm-3,17.64519,R,ugm-3,,,
02-01-2018,03:00,,,,4.75737,R,ugm-3,13.43511,R,ugm-3,20.72965,R,ugm-3,,,
02-01-2018,04:00,,,,1.88241,R,ugm-3,6.62553,R,ugm-3,9.51186,R,ugm-3,,,
02-01-2018,05:00,,,,1.36903,R,ugm-3,2.91526,R,ugm-3,5.01440,R,ugm-3,,,
02-01-2018,06:00,,,,2.36157,R,ugm-3,7.85524,R,ugm-3,11.47626,R,ugm-3,,,
02-01-2018,07:00,,,,3.93596,R,ugm-3,9.78359,R,ugm-3,15.81863,R,ugm-3,,,
02-01-2018,08:00,,,,11.39716,R,ugm-3,15.19577,R,ugm-3,32.67116,R,ugm-3,,,
02-01-2018,09:00,,,,37.30601,R,ugm-3,40.50158,R,ugm-3,97.70332,R,ugm-3,,,
02-01-2018,10:00,,,,86.45410,R,ugm-3,53.64385,R,ugm-3,186.20495,R,ugm-3,,,
02-01-2018,11:00,,,,76.56288,R,ugm-3,71.13645,R,ugm-3,188.53122,R,ugm-3,,,
02-01-2018,12:00,,,,17.52356,R,ugm-3,39.61054,R,ugm-3,66.47961,R,ugm-3,,,
02-01-2018,13:00,,,,12.52660,R,ugm-3,30.73006,R,ugm-3,49.93725,R,ugm-3,,,
02-01-2018,14:00,,,,21.73332,R,ugm-3,30.72600,R,ugm-3,64.04995,R,ugm-3,,,
02-01-2018,15:00,,,,25.15588,R,ugm-3,34.11118,R,ugm-3,72.68300,R,ugm-3,,,
02-01-2018,16:00,,,,20.84345,R,ugm-3,20.76927,R,ugm-3,52.72878,R,ugm-3,,,
02-01-2018,17:00,,,,18.48187,R,ugm-3,23.51149,R,ugm-3,51.84996,R,ugm-3,,,
02-01-2018,18:00,,,,17.72891,R,ugm-3,23.42534,R,ugm-3,50.60929,R,ugm-3,,,
02-01-2018,19:00,,,,22.62318,R,ugm-3,32.67003,R,ugm-3,67.35843,R,ugm-3,,,
02-01-2018,20:00,,,,22.99967,R,ugm-3,39.64022,R,ugm-3,74.90588,R,ugm-3,,,
02-01-2018,21:00,,,,26.69604,R,ugm-3,52.32420,R,ugm-3,93.25756,R,ugm-3,,,
02-01-2018,22:00,,,,23.85531,R,ugm-3,64.95111,R,ugm-3,101.52874,R,ugm-3,,,
02-01-2018,23:00,,,,19.02949,R,ugm-3,52.75824,R,ugm-3,81.93638,R,ugm-3,,,
02-01-2018,24:00,,,,7.29007,R,ugm-3,32.09066,R,ugm-3,43.26861,R,ugm-3,,,
03-01-2018,01:00,,,,1.18572,R,ugm-3,9.90620,R,ugm-3,11.72427,R,ugm-3,,,
03-01-2018,02:00,,,,1.73298,R,ugm-3,17.27407,R,ugm-3,19.93126,R,ugm-3,,,
03-01-2018,03:00,,,,3.72818,R,ugm-3,25.99080,R,ugm-3,31.70726,R,ugm-3,,,
03-01-2018,04:00,,,,8.72188,R,ugm-3,29.71334,R,ugm-3,43.08670,R,ugm-3,,,
03-01-2018,05:00,,,,17.95681,R,ugm-3,28.58795,R,ugm-3,56.12133,R,ugm-3,,,
03-01-2018,06:00,,,,16.48606,R,ugm-3,35.13622,R,ugm-3,60.41449,R,ugm-3,,,
03-01-2018,07:00,,,,109.92986,R,ugm-3,56.44581,R,ugm-3,225.00258,R,ugm-3,,,
03-01-2018,08:00,,,,66.93613,R,ugm-3,61.07480,R,ugm-3,163.70877,R,ugm-3,,,
03-01-2018,09:00,,,,132.98298,R,ugm-3,74.58156,R,ugm-3,278.48595,R,ugm-3,,,
03-01-2018,10:00,,,,88.55271,R,ugm-3,65.63718,R,ugm-3,201.41610,R,ugm-3,,,
03-01-2018,11:00,,,,30.40686,R,ugm-3,31.11907,R,ugm-3,77.74227,R,ugm-3,,,
03-01-2018,12:00,,,,49.08194,R,ugm-3,48.88143,R,ugm-3,124.13935,R,ugm-3,,,
03-01-2018,13:00,,,,42.54908,R,ugm-3,53.93277,R,ugm-3,119.17378,R,ugm-3,,,
03-01-2018,14:00,,,,40.70209,R,ugm-3,48.43709,R,ugm-3,110.84610,R,ugm-3,,,
03-01-2018,15:00,,,,56.70931,R,ugm-3,56.37617,R,ugm-3,143.32923,R,ugm-3,,,
03-01-2018,16:00,,,,197.37666,R,ugm-3,112.53719,R,ugm-3,415.17717,R,ugm-3,,,
03-01-2018,17:00,,,,105.03877,R,ugm-3,72.27306,R,ugm-3,233.33026,R,ugm-3,,,
03-01-2018,18:00,,,,83.04596,R,ugm-3,68.23585,R,ugm-3,195.57121,R,ugm-3,,,
03-01-2018,19:00,,,,81.02795,R,ugm-3,64.55414,R,ugm-3,188.79527,R,ugm-3,,,
03-01-2018,20:00,,,,22.06122,R,ugm-3,38.27754,R,ugm-3,72.10428,R,ugm-3,,,
03-01-2018,21:00,,,,35.94782,R,ugm-3,38.70945,R,ugm-3,93.82866,R,ugm-3,,,
03-01-2018,22:00,,,,14.67328,R,ugm-3,28.50188,R,ugm-3,51.00058,R,ugm-3,,,
03-01-2018,23:00,,,,23.60037,R,ugm-3,33.17613,R,ugm-3,69.36286,R,ugm-3,,,
03-01-2018,24:00,,,,23.08732,R,ugm-3,31.73863,R,ugm-3,67.13870,R,ugm-3,,,
04-01-2018,01:00,,,,54.79685,R,ugm-3,38.70333,R,ugm-3,122.72399,R,ugm-3,,,
04-01-2018,02:00,,,,17.67198,R,ugm-3,32.22799,R,ugm-3,59.32465,R,ugm-3,,,
04-01-2018,03:00,,,,1.43842,R,ugm-3,10.38109,R,ugm-3,12.58663,R,ugm-3,,,
04-01-2018,04:00,,,,7.02085,R,ugm-3,27.35733,R,ugm-3,38.12248,R,ugm-3,,,
04-01-2018,05:00,,,,22.22697,R,ugm-3,35.22330,R,ugm-3,69.30418,R,ugm-3,,,
04-01-2018,06:00,,,,14.69240,R,ugm-3,35.43263,R,ugm-3,57.96067,R,ugm-3,,,
04-01-2018,07:00,,,,28.80259,R,ugm-3,30.99386,R,ugm-3,75.15722,R,ugm-3,,,
04-01-2018,08:00,,,,36.40566,R,ugm-3,39.17418,R,ugm-3,94.99541,R,ugm-3,,,
04-01-2018,09:00,,,,28.83684,R,ugm-3,44.35673,R,ugm-3,88.57260,R,ugm-3,,,
04-01-2018,10:00,,,,9.07573,R,ugm-3,34.72131,R,ugm-3,48.63724,R,ugm-3,,,
04-01-2018,11:00,,,,3.28781,R,ugm-3,25.31171,R,ugm-3,30.35295,R,ugm-3,,,
04-01-2018,12:00,,,,7.97979,R,ugm-3,26.09416,R,ugm-3,38.32966,R,ugm-3,,,
04-01-2018,13:00,,,,13.59647,R,ugm-3,39.02952,R,ugm-3,59.87715,R,ugm-3,,,
04-01-2018,14:00,,,,6.09615,R,ugm-3,31.57221,R,ugm-3,40.91951,R,ugm-3,,,
04-01-2018,15:00,,,,14.14444,R,ugm-3,40.15760,R,ugm-3,61.84543,R,ugm-3,,,
04-01-2018,16:00,,,,13.18549,R,ugm-3,39.65968,R,ugm-3,59.87715,R,ugm-3,,,
04-01-2018,17:00,,,,11.81557,R,ugm-3,43.72848,R,ugm-3,61.84543,R,ugm-3,,,
04-01-2018,18:00,,,,25.00106,R,ugm-3,51.48130,R,ugm-3,89.81572,R,ugm-3,,,
04-01-2018,19:00,,,,32.56988,R,ugm-3,52.66976,R,ugm-3,102.60954,R,ugm-3,,,
04-01-2018,20:00,,,,23.32291,R,ugm-3,44.42022,R,ugm-3,80.18151,R,ugm-3,,,
04-01-2018,21:00,,,,6.78111,R,ugm-3,32.28304,R,ugm-3,42.68060,R,ugm-3,,,
04-01-2018,22:00,,,,1.88364,R,ugm-3,20.62756,R,ugm-3,23.51577,R,ugm-3,,,
04-01-2018,23:00,,,,15.00064,R,ugm-3,40.29509,R,ugm-3,63.29574,R,ugm-3,,,
04-01-2018,24:00,,,,10.47990,R,ugm-3,36.40125,R,ugm-3,52.47020,R,ugm-3,,,
05-01-2018,01:00,,,,1.32598,R,ugm-3,20.65088,R,ugm-3,22.68402,R,ugm-3,,,
05-01-2018,02:00,,,,1.41743,R,ugm-3,15.53124,R,ugm-3,17.70460,R,ugm-3,,,
05-01-2018,03:00,,,,1.23453,R,ugm-3,13.30468,R,ugm-3,15.19760,R,ugm-3,,,
05-01-2018,04:00,,,,1.88609,R,ugm-3,18.21869,R,ugm-3,21.11067,R,ugm-3,,,
05-01-2018,05:00,,,,1.02878,R,ugm-3,13.62017,R,ugm-3,15.19760,R,ugm-3,,,
05-01-2018,06:00,,,,2.09185,R,ugm-3,17.33265,R,ugm-3,20.54011,R,ugm-3,,,
05-01-2018,07:00,,,,1.61175,R,ugm-3,15.89029,R,ugm-3,18.36161,R,ugm-3,,,
05-01-2018,08:00,,,,3.36068,R,ugm-3,24.67168,R,ugm-3,29.82465,R,ugm-3,,,
05-01-2018,09:00,,,,9.87627,R,ugm-3,43.36477,R,ugm-3,58.50818,R,ugm-3,,,
05-01-2018,10:00,,,,4.38946,R,ugm-3,33.72738,R,ugm-3,40.45778,R,ugm-3,,,
05-01-2018,11:00,,,,12.20817,R,ugm-3,43.57568,R,ugm-3,62.29461,R,ugm-3,,,
05-01-2018,12:00,,,,10.08203,R,ugm-3,39.83341,R,ugm-3,55.29231,R,ugm-3,,,
05-01-2018,13:00,,,,3.29209,R,ugm-3,23.73947,R,ugm-3,28.78727,R,ugm-3,,,
05-01-2018,14:00,,,,4.90385,R,ugm-3,31.84941,R,ugm-3,39.36854,R,ugm-3,,,
05-01-2018,15:00,,,,2.81199,R,ugm-3,27.89896,R,ugm-3,32.21062,R,ugm-3,,,
05-01-2018,16:00,,,,7.99018,R,ugm-3,35.31239,R,ugm-3,47.56383,R,ugm-3,,,
05-01-2018,17:00,,,,4.86955,R,ugm-3,22.72119,R,ugm-3,30.18773,R,ugm-3,,,
05-01-2018,18:00,,,,3.36068,R,ugm-3,22.02637,R,ugm-3,27.17933,R,ugm-3,,,
05-01-2018,19:00,,,,1.81751,R,ugm-3,12.41080,R,ugm-3,15.19760,R,ugm-3,,,
05-01-2018,20:00,,,,3.05204,R,ugm-3,15.54916,R,ugm-3,20.22889,R,ugm-3,,,
05-01-2018,21:00,,,,0.96019,R,ugm-3,6.51554,R,ugm-3,7.98782,R,ugm-3,,,
05-01-2018,22:00,,,,0.72015,R,ugm-3,3.04531,R,ugm-3,4.14952,R,ugm-3,,,
05-01-2018,23:00,,,,1.02878,R,ugm-3,5.52861,R,ugm-3,7.10605,R,ugm-3,,,
05-01-2018,24:00,,,,1.57746,R,ugm-3,10.80785,R,ugm-3,13.22658,R,ugm-3,,,
06-01-2018,01:00,,,,0.64096,R,ugm-3,2.41069,R,ugm-3,3.39348,R,ugm-3,,,
06-01-2018,02:00,,,,0.59518,R,ugm-3,1.85760,R,ugm-3,2.77019,R,ugm-3,,,
06-01-2018,03:00,,,,0.61807,R,ugm-3,1.12995,R,ugm-3,2.07764,R,ugm-3,,,
06-01-2018,04:00,,,,0.48072,R,ugm-3,1.34055,R,ugm-3,2.07764,R,ugm-3,,,
06-01-2018,05:00,,,,0.58373,R,ugm-3,1.75395,R,ugm-3,2.64899,R,ugm-3,,,
06-01-2018,06:00,,,,0.54940,R,ugm-3,2.53378,R,ugm-3,3.37617,R,ugm-3,,,
06-01-2018,07:00,,,,0.68675,R,ugm-3,2.11541,R,ugm-3,3.16840,R,ugm-3,,,
06-01-2018,08:00,,,,0.78976,R,ugm-3,3.20405,R,ugm-3,4.41499,R,ugm-3,,,
06-01-2018,09:00,,,,0.85843,R,ugm-3,4.08563,R,ugm-3,5.40187,R,ugm-3,,,
06-01-2018,10:00,,,,1.44216,R,ugm-3,5.99540,R,ugm-3,8.20669,R,ugm-3,,,
06-01-2018,11:00,,,,2.95300,R,ugm-3,9.39234,R,ugm-3,13.92021,R,ugm-3,,,
06-01-2018,12:00,,,,2.81565,R,ugm-3,7.00588,R,ugm-3,11.32315,R,ugm-3,,,
06-01-2018,13:00,,,,1.68252,R,ugm-3,5.52297,R,ugm-3,8.10281,R,ugm-3,,,
06-01-2018,14:00,,,,4.22348,R,ugm-3,11.91123,R,ugm-3,18.38714,R,ugm-3,,,
06-01-2018,15:00,,,,5.76865,R,ugm-3,17.48898,R,ugm-3,26.33412,R,ugm-3,,,
06-01-2018,16:00,,,,2.47228,R,ugm-3,8.57120,R,ugm-3,12.36197,R,ugm-3,,,
06-01-2018,17:00,,,,4.12046,R,ugm-3,10.40707,R,ugm-3,16.72502,R,ugm-3,,,
06-01-2018,18:00,,,,9.09936,R,ugm-3,21.31583,R,ugm-3,35.26798,R,ugm-3,,,
06-01-2018,19:00,,,,10.95357,R,ugm-3,24.08238,R,ugm-3,40.87762,R,ugm-3,,,
06-01-2018,20:00,,,,18.81679,R,ugm-3,49.05959,R,ugm-3,77.91160,R,ugm-3,,,
06-01-2018,21:00,,,,32.86071,R,ugm-3,58.89829,R,ugm-3,109.28400,R,ugm-3,,,
06-01-2018,22:00,,,,62.45938,R,ugm-3,64.78012,R,ugm-3,160.54983,R,ugm-3,,,
06-01-2018,23:00,,,,63.48949,R,ugm-3,73.12138,R,ugm-3,170.47058,R,ugm-3,,,
06-01-2018,24:00,,,,45.35945,R,ugm-3,57.86125,R,ugm-3,127.41144,R,ugm-3,,,
07-01-2018,01:00,,,,35.11527,R,ugm-3,53.51253,R,ugm-3,107.35520,R,ugm-3,,,
07-01-2018,02:00,,,,11.00217,R,ugm-3,22.45220,R,ugm-3,39.32196,R,ugm-3,,,
07-01-2018,03:00,,,,3.81638,R,ugm-3,13.60123,R,ugm-3,19.45293,R,ugm-3,,,
07-01-2018,04:00,,,,3.74762,R,ugm-3,12.71841,R,ugm-3,18.46468,R,ugm-3,,,
07-01-2018,05:00,,,,2.44111,R,ugm-3,11.28883,R,ugm-3,15.03181,R,ugm-3,,,
07-01-2018,06:00,,,,4.29772,R,ugm-3,13.53935,R,ugm-3,20.12910,R,ugm-3,,,
07-01-2018,07:00,,,,4.71031,R,ugm-3,10.09802,R,ugm-3,17.32039,R,ugm-3,,,
07-01-2018,08:00,,,,12.89317,R,ugm-3,30.57950,R,ugm-3,50.34876,R,ugm-3,,,
07-01-2018,09:00,,,,9.55814,R,ugm-3,21.90966,R,ugm-3,36.56526,R,ugm-3,,,
07-01-2018,10:00,,,,11.99925,R,ugm-3,20.97539,R,ugm-3,39.37397,R,ugm-3,,,
07-01-2018,11:00,,,,20.45717,R,ugm-3,24.70299,R,ugm-3,56.07021,R,ugm-3,,,
07-01-2018,12:00,,,,17.63786,R,ugm-3,21.17187,R,ugm-3,48.21622,R,ugm-3,,,
07-01-2018,13:00,,,,28.15869,R,ugm-3,37.28833,R,ugm-3,80.46439,R,ugm-3,,,
07-01-2018,14:00,,,,22.34817,R,ugm-3,18.00653,R,ugm-3,52.27324,R,ugm-3,,,
07-01-2018,15:00,,,,21.48862,R,ugm-3,23.22547,R,ugm-3,56.17423,R,ugm-3,,,
07-01-2018,16:00,,,,24.92680,R,ugm-3,26.17175,R,ugm-3,64.39231,R,ugm-3,,,
07-01-2018,17:00,,,,29.91216,R,ugm-3,33.66348,R,ugm-3,79.52815,R,ugm-3,,,
07-01-2018,18:00,,,,25.58006,R,ugm-3,28.75902,R,ugm-3,67.98122,R,ugm-3,,,
07-01-2018,19:00,,,,17.39719,R,ugm-3,23.04928,R,ugm-3,49.72460,R,ugm-3,,,
07-01-2018,20:00,,,,14.74979,R,ugm-3,27.94078,R,ugm-3,50.55681,R,ugm-3,,,
07-01-2018,21:00,,,,11.58667,R,ugm-3,18.48721,R,ugm-3,36.25318,R,ugm-3,,,
07-01-2018,22:00,,,,8.56107,R,ugm-3,17.87307,R,ugm-3,30.99985,R,ugm-3,,,
07-01-2018,23:00,,,,5.32918,R,ugm-3,10.76150,R,ugm-3,18.93280,R,ugm-3,,,
07-01-2018,24:00,,,,4.50402,R,ugm-3,12.96297,R,ugm-3,19.86903,R,ugm-3,,,
08-01-2018,01:00,,,,2.43280,R,ugm-3,5.36733,R,ugm-3,9.09756,R,ugm-3,,,
08-01-2018,02:00,,,,2.52460,R,ugm-3,10.71288,R,ugm-3,14.58388,R,ugm-3,,,
08-01-2018,03:00,,,,3.37379,R,ugm-3,17.01527,R,ugm-3,22.18833,R,ugm-3,,,
08-01-2018,04:00,,,,4.54428,R,ugm-3,20.42906,R,ugm-3,27.39686,R,ugm-3,,,
08-01-2018,05:00,,,,17.07549,R,ugm-3,36.37239,R,ugm-3,62.55443,R,ugm-3,,,
08-01-2018,06:00,,,,16.07712,R,ugm-3,29.77789,R,ugm-3,54.42913,R,ugm-3,,,
08-01-2018,07:00,,,,63.13798,R,ugm-3,62.10199,R,ugm-3,158.91222,R,ugm-3,,,
08-01-2018,08:00,,,,206.21403,R,ugm-3,109.24221,R,ugm-3,425.43264,R,ugm-3,,,
08-01-2018,09:00,,,,260.81427,R,ugm-3,118.75567,R,ugm-3,518.66531,R,ugm-3,,,
08-01-2018,10:00,,,,324.46865,R,ugm-3,123.03247,R,ugm-3,620.54413,R,ugm-3,,,
08-01-2018,11:00,,,,188.38116,R,ugm-3,89.81296,R,ugm-3,378.66005,R,ugm-3,,,
08-01-2018,12:00,,,,23.10010,R,ugm-3,29.11401,R,ugm-3,64.53367,R,ugm-3,,,
08-01-2018,13:00,,,,19.86402,R,ugm-3,20.27333,R,ugm-3,50.73107,R,ugm-3,,,
08-01-2018,14:00,,,,33.01490,R,ugm-3,32.14138,R,ugm-3,82.76352,R,ugm-3,,,
08-01-2018,15:00,,,,37.49033,R,ugm-3,41.42559,R,ugm-3,98.90996,R,ugm-3,,,
08-01-2018,16:00,,,,76.63313,R,ugm-3,71.30668,R,ugm-3,188.80917,R,ugm-3,,,
08-01-2018,17:00,,,,169.72206,R,ugm-3,112.69380,R,ugm-3,372.93067,R,ugm-3,,,
08-01-2018,18:00,,,,229.55512,R,ugm-3,120.79856,R,ugm-3,472.77817,R,ugm-3,,,
08-01-2018,19:00,,,,36.04442,R,ugm-3,55.20555,R,ugm-3,110.47290,R,ugm-3,,,
08-01-2018,20:00,,,,10.12136,R,ugm-3,25.21150,R,ugm-3,40.73070,R,ugm-3,,,
08-01-2018,21:00,,,,20.41485,R,ugm-3,35.78353,R,ugm-3,67.08585,R,ugm-3,,,
08-01-2018,22:00,,,,31.22473,R,ugm-3,65.04366,R,ugm-3,112.92091,R,ugm-3,,,
08-01-2018,23:00,,,,5.26724,R,ugm-3,21.87273,R,ugm-3,29.94904,R,ugm-3,,,
08-01-2018,24:00,,,,1.41148,R,ugm-3,11.16959,R,ugm-3,13.33383,R,ugm-3,,,
09-01-2018,01:00,,,,0.96519,R,ugm-3,10.34241,R,ugm-3,11.82234,R,ugm-3,,,
09-01-2018,02:00,,,,1.01115,R,ugm-3,11.52372,R,ugm-3,13.07412,R,ugm-3,,,
09-01-2018,03:00,,,,2.65426,R,ugm-3,18.25355,R,ugm-3,22.32337,R,ugm-3,,,
09-01-2018,04:00,,,,1.58567,R,ugm-3,8.31311,R,ugm-3,10.74443,R,ugm-3,,,
09-01-2018,05:00,,,,2.20614,R,ugm-3,14.55944,R,ugm-3,17.94215,R,ugm-3,,,
09-01-2018,06:00,,,,3.99863,R,ugm-3,21.66874,R,ugm-3,27.79990,R,ugm-3,,,
09-01-2018,07:00,,,,10.51365,R,ugm-3,33.42883,R,ugm-3,49.54953,R,ugm-3,,,
09-01-2018,08:00,,,,19.51057,R,ugm-3,42.37437,R,ugm-3,72.29016,R,ugm-3,,,
09-01-2018,09:00,,,,22.37166,R,ugm-3,47.79302,R,ugm-3,82.09575,R,ugm-3,,,
09-01-2018,10:00,,,,20.78600,R,ugm-3,39.63638,R,ugm-3,71.50780,R,ugm-3,,,
09-01-2018,11:00,,,,68.80406,R,ugm-3,56.39849,R,ugm-3,161.89657,R,ugm-3,,,
09-01-2018,12:00,,,,45.43274,R,ugm-3,43.31037,R,ugm-3,112.97293,R,ugm-3,,,
09-01-2018,13:00,,,,20.09658,R,ugm-3,31.20083,R,ugm-3,62.01515,R,ugm-3,,,
09-01-2018,14:00,,,,21.85460,R,ugm-3,36.27669,R,ugm-3,69.78660,R,ugm-3,,,
09-01-2018,15:00,,,,7.68703,R,ugm-3,31.39972,R,ugm-3,43.18633,R,ugm-3,,,
09-01-2018,16:00,,,,44.29520,R,ugm-3,53.29544,R,ugm-3,121.21380,R,ugm-3,,,
09-01-2018,17:00,,,,84.97094,R,ugm-3,54.97613,R,ugm-3,185.26309,R,ugm-3,,,
09-01-2018,18:00,,,,93.31292,R,ugm-3,61.69214,R,ugm-3,204.76995,R,ugm-3,,,
09-01-2018,19:00,,,,108.44567,R,ugm-3,81.72739,R,ugm-3,248.00844,R,ugm-3,,,
09-01-2018,20:00,,,,45.46721,R,ugm-3,48.83836,R,ugm-3,118.55377,R,ugm-3,,,
09-01-2018,21:00,,,,49.94844,R,ugm-3,53.38971,R,ugm-3,129.97624,R,ugm-3,,,
09-01-2018,22:00,,,,18.13173,R,ugm-3,35.41317,R,ugm-3,63.21477,R,ugm-3,,,
09-01-2018,23:00,,,,16.13241,R,ugm-3,33.83674,R,ugm-3,58.57276,R,ugm-3,,,
09-01-2018,24:00,,,,8.34198,R,ugm-3,19.91184,R,ugm-3,32.70269,R,ugm-3,,,
10-01-2018,01:00,,,,1.84083,R,ugm-3,11.17494,R,ugm-3,13.99751,R,ugm-3,,,
10-01-2018,02:00,,,,1.28858,R,ugm-3,8.67902,R,ugm-3,10.65482,R,ugm-3,,,
10-01-2018,03:00,,,,1.24256,R,ugm-3,11.88336,R,ugm-3,13.78859,R,ugm-3,,,
10-01-2018,04:00,,,,4.14187,R,ugm-3,15.53339,R,ugm-3,21.88417,R,ugm-3,,,
10-01-2018,05:00,,,,8.93953,R,ugm-3,18.77967,R,ugm-3,32.48676,R,ugm-3,,,
10-01-2018,06:00,,,,13.97880,R,ugm-3,24.78926,R,ugm-3,46.22312,R,ugm-3,,,
10-01-2018,07:00,,,,30.33918,R,ugm-3,31.45924,R,ugm-3,77.97866,R,ugm-3,,,
10-01-2018,08:00,,,,130.98654,R,ugm-3,63.02026,R,ugm-3,263.86349,R,ugm-3,,,
10-01-2018,09:00,,,,178.85962,R,ugm-3,85.97935,R,ugm-3,360.22694,R,ugm-3,,,
10-01-2018,10:00,,,,212.82293,R,ugm-3,78.08916,R,ugm-3,404.41311,R,ugm-3,,,
10-01-2018,11:00,,,,110.31173,R,ugm-3,59.20514,R,ugm-3,228.34743,R,ugm-3,,,
10-01-2018,12:00,,,,107.13629,R,ugm-3,53.41925,R,ugm-3,217.69261,R,ugm-3,,,
10-01-2018,13:00,,,,43.42057,R,ugm-3,44.41043,R,ugm-3,110.98771,R,ugm-3,,,
10-01-2018,14:00,,,,24.22992,R,ugm-3,36.28267,R,ugm-3,73.43470,R,ugm-3,,,
10-01-2018,15:00,,,,107.23984,R,ugm-3,61.09490,R,ugm-3,225.52703,R,ugm-3,,,
10-01-2018,16:00,,,,191.56135,R,ugm-3,77.00177,R,ugm-3,370.72508,R,ugm-3,,,
10-01-2018,17:00,,,,293.62386,R,ugm-3,105.08720,R,ugm-3,555.30417,R,ugm-3,,,
10-01-2018,18:00,,,,193.42519,R,ugm-3,80.20255,R,ugm-3,376.78370,R,ugm-3,,,
10-01-2018,19:00,,,,156.42451,R,ugm-3,74.26071,R,ugm-3,314.10829,R,ugm-3,,,
10-01-2018,20:00,,,,167.46949,R,ugm-3,72.94194,R,ugm-3,329.72491,R,ugm-3,,,
10-01-2018,21:00,,,,55.43199,R,ugm-3,51.22004,R,ugm-3,136.21457,R,ugm-3,,,
10-01-2018,22:00,,,,105.61761,R,ugm-3,55.17334,R,ugm-3,217.11808,R,ugm-3,,,
10-01-2018,23:00,,,,58.50387,R,ugm-3,49.90480,R,ugm-3,139.60949,R,ugm-3,,,
10-01-2018,24:00,,,,33.27300,R,ugm-3,44.82327,R,ugm-3,95.84116,R,ugm-3,,,
11-01-2018,01:00,,,,14.83782,R,ugm-3,23.13495,R,ugm-3,45.88596,R,ugm-3,,,
11-01-2018,02:00,,,,14.60742,R,ugm-3,24.88293,R,ugm-3,47.28067,R,ugm-3,,,
11-01-2018,03:00,,,,9.88420,R,ugm-3,20.40954,R,ugm-3,35.56510,R,ugm-3,,,
11-01-2018,04:00,,,,7.91427,R,ugm-3,14.32957,R,ugm-3,26.46462,R,ugm-3,,,
11-01-2018,05:00,,,,17.07271,R,ugm-3,21.05057,R,ugm-3,47.22837,R,ugm-3,,,
11-01-2018,06:00,,,,36.63376,R,ugm-3,25.57646,R,ugm-3,81.74744,R,ugm-3,,,
11-01-2018,07:00,,,,47.07092,R,ugm-3,37.60670,R,ugm-3,109.78111,R,ugm-3,,,
11-01-2018,08:00,,,,205.28727,R,ugm-3,65.30647,R,ugm-3,380.07590,R,ugm-3,,,
11-01-2018,09:00,,,,186.14095,R,ugm-3,69.40207,R,ugm-3,354.81421,R,ugm-3,,,
11-01-2018,10:00,,,,74.88032,R,ugm-3,53.03846,R,ugm-3,167.85334,R,ugm-3,,,
11-01-2018,11:00,,,,95.38601,R,ugm-3,52.90808,R,ugm-3,199.16458,R,ugm-3,,,
11-01-2018,12:00,,,,34.07631,R,ugm-3,39.17363,R,ugm-3,91.42324,R,ugm-3,,,
11-01-2018,13:00,,,,13.34022,R,ugm-3,26.19834,R,ugm-3,46.65305,R,ugm-3,,,
11-01-2018,14:00,,,,12.82182,R,ugm-3,25.73797,R,ugm-3,45.39781,R,ugm-3,,,
11-01-2018,15:00,,,,74.75360,R,ugm-3,57.97477,R,ugm-3,172.59536,R,ugm-3,,,
11-01-2018,16:00,,,,115.70737,R,ugm-3,63.69499,R,ugm-3,241.11049,R,ugm-3,,,
11-01-2018,17:00,,,,356.03863,R,ugm-3,104.13859,R,ugm-3,650.05688,R,ugm-3,,,
11-01-2018,18:00,,,,318.57543,R,ugm-3,89.03901,R,ugm-3,577.51453,R,ugm-3,,,
11-01-2018,19:00,,,,263.55568,R,ugm-3,87.31298,R,ugm-3,491.42606,R,ugm-3,,,
11-01-2018,20:00,,,,218.03997,R,ugm-3,72.74025,R,ugm-3,407.06354,R,ugm-3,,,
11-01-2018,21:00,,,,216.51932,R,ugm-3,70.62624,R,ugm-3,402.61790,R,ugm-3,,,
11-01-2018,22:00,,,,220.97758,R,ugm-3,70.48495,R,ugm-3,409.31251,R,ugm-3,,,
11-01-2018,23:00,,,,126.14454,R,ugm-3,53.54934,R,ugm-3,246.96827,R,ugm-3,,,
11-01-2018,24:00,,,,74.37344,R,ugm-3,38.36925,R,ugm-3,152.40693,R,ugm-3,,,
12-01-2018,01:00,,,,40.00307,R,ugm-3,32.51654,R,ugm-3,93.85373,R,ugm-3,,,
12-01-2018,02:00,,,,18.13288,R,ugm-3,27.50330,R,ugm-3,55.30666,R,ugm-3,,,
12-01-2018,03:00,,,,12.11166,R,ugm-3,24.84688,R,ugm-3,43.41783,R,ugm-3,,,
12-01-2018,04:00,,,,11.48877,R,ugm-3,21.35019,R,ugm-3,38.96606,R,ugm-3,,,
12-01-2018,05:00,,,,13.87650,R,ugm-3,17.58431,R,ugm-3,38.86131,R,ugm-3,,,
12-01-2018,06:00,,,,11.17733,R,ugm-3,20.78025,R,ugm-3,37.91859,R,ugm-3,,,
12-01-2018,07:00,,,,51.11119,R,ugm-3,33.23903,R,ugm-3,111.60843,R,ugm-3,,,
12-01-2018,08:00,,,,188.18055,R,ugm-3,67.54954,R,ugm-3,356.08903,R,ugm-3,,,
12-01-2018,09:00,,,,204.72161,R,ugm-3,66.80259,R,ugm-3,380.70468,R,ugm-3,,,
12-01-2018,10:00,,,,221.71254,R,ugm-3,72.17444,R,ugm-3,412.12892,R,ugm-3,,,
12-01-2018,11:00,,,,62.01169,R,ugm-3,38.73164,R,ugm-3,133.81489,R,ugm-3,,,
12-01-2018,12:00,,,,49.41556,R,ugm-3,44.53300,R,ugm-3,120.30247,R,ugm-3,,,
12-01-2018,13:00,,,,27.75300,R,ugm-3,35.84948,R,ugm-3,78.40348,R,ugm-3,,,
12-01-2018,14:00,,,,22.00861,R,ugm-3,38.42494,R,ugm-3,72.17101,R,ugm-3,,,
12-01-2018,15:00,,,,33.84343,R,ugm-3,37.29994,R,ugm-3,89.19247,R,ugm-3,,,
12-01-2018,16:00,,,,56.30190,R,ugm-3,51.78116,R,ugm-3,138.10954,R,ugm-3,,,
12-01-2018,17:00,,,,88.83036,R,ugm-3,80.51787,R,ugm-3,216.72252,R,ugm-3,,,
12-01-2018,18:00,,,,19.58628,R,ugm-3,34.23070,R,ugm-3,64.26257,R,ugm-3,,,
12-01-2018,19:00,,,,13.66887,R,ugm-3,17.74555,R,ugm-3,38.70419,R,ugm-3,,,
12-01-2018,20:00,,,,18.85958,R,ugm-3,28.85061,R,ugm-3,57.76823,R,ugm-3,,,
12-01-2018,21:00,,,,8.47816,R,ugm-3,16.59150,R,ugm-3,29.59116,R,ugm-3,,,
12-01-2018,22:00,,,,5.95202,R,ugm-3,14.86088,R,ugm-3,23.98717,R,ugm-3,,,
12-01-2018,23:00,,,,5.05229,R,ugm-3,17.81164,R,ugm-3,25.55838,R,ugm-3,,,
12-01-2018,24:00,,,,9.68933,R,ugm-3,39.66430,R,ugm-3,54.52106,R,ugm-3,,,
13-01-2018,01:00,,,,2.49475,R,ugm-3,12.39802,R,ugm-3,16.22325,R,ugm-3,,,
13-01-2018,02:00,,,,1.61697,R,ugm-3,10.66711,R,ugm-3,13.14643,R,ugm-3,,,
13-01-2018,03:00,,,,1.55922,R,ugm-3,7.20682,R,ugm-3,9.59759,R,ugm-3,,,
13-01-2018,04:00,,,,1.24738,R,ugm-3,6.84584,R,ugm-3,8.75846,R,ugm-3,,,
13-01-2018,05:00,,,,1.45527,R,ugm-3,5.79283,R,ugm-3,8.02422,R,ugm-3,,,
13-01-2018,06:00,,,,1.21273,R,ugm-3,7.31854,R,ugm-3,9.17802,R,ugm-3,,,
13-01-2018,07:00,,,,3.53423,R,ugm-3,13.46143,R,ugm-3,18.88050,R,ugm-3,,,
13-01-2018,08:00,,,,8.07329,R,ugm-3,23.07452,R,ugm-3,35.45339,R,ugm-3,,,
13-01-2018,09:00,,,,9.38997,R,ugm-3,21.73744,R,ugm-3,36.13519,R,ugm-3,,,
13-01-2018,10:00,,,,8.69698,R,ugm-3,16.29672,R,ugm-3,29.63190,R,ugm-3,,,
13-01-2018,11:00,,,,16.18123,R,ugm-3,21.28902,R,ugm-3,46.09990,R,ugm-3,,,
13-01-2018,12:00,,,,19.43827,R,ugm-3,22.22135,R,ugm-3,52.02628,R,ugm-3,,,
13-01-2018,13:00,,,,60.22052,R,ugm-3,50.84031,R,ugm-3,143.17716,R,ugm-3,,,
13-01-2018,14:00,,,,29.62517,R,ugm-3,33.55882,R,ugm-3,78.98344,R,ugm-3,,,
13-01-2018,15:00,,,,16.07729,R,ugm-3,28.21392,R,ugm-3,52.86541,R,ugm-3,,,
13-01-2018,16:00,,,,29.93702,R,ugm-3,37.06655,R,ugm-3,82.96933,R,ugm-3,,,
13-01-2018,17:00,,,,42.34147,R,ugm-3,50.87774,R,ugm-3,115.80043,R,ugm-3,,,
13-01-2018,18:00,,,,19.50757,R,ugm-3,36.53770,R,ugm-3,66.44889,R,ugm-3,,,
13-01-2018,19:00,,,,9.25137,R,ugm-3,17.38717,R,ugm-3,31.57240,R,ugm-3,,,
13-01-2018,20:00,,,,10.25620,R,ugm-3,15.79400,R,ugm-3,31.51996,R,ugm-3,,,
13-01-2018,21:00,,,,8.14259,R,ugm-3,9.01767,R,ugm-3,21.50280,R,ugm-3,,,
13-01-2018,22:00,,,,4.08862,R,ugm-3,9.41218,R,ugm-3,15.68131,R,ugm-3,,,
13-01-2018,23:00,,,,6.41013,R,ugm-3,24.10374,R,ugm-3,33.93246,R,ugm-3,,,
13-01-2018,24:00,,,,3.36099,R,ugm-3,11.47190,R,ugm-3,16.62533,R,ugm-3,,,
14-01-2018,01:00,,,,1.80408,R,ugm-3,6.68701,R,ugm-3,9.45323,R,ugm-3,,,
14-01-2018,02:00,,,,1.48027,R,ugm-3,7.67368,R,ugm-3,9.94340,R,ugm-3,,,
14-01-2018,03:00,,,,1.76939,R,ugm-3,8.52582,R,ugm-3,11.23884,R,ugm-3,,,
14-01-2018,04:00,,,,1.80408,R,ugm-3,8.36759,R,ugm-3,11.13381,R,ugm-3,,,
14-01-2018,05:00,,,,1.24898,R,ugm-3,8.43096,R,ugm-3,10.34604,R,ugm-3,,,
14-01-2018,06:00,,,,1.04082,R,ugm-3,7.38467,R,ugm-3,8.98057,R,ugm-3,,,